Grand Rapids, MI

8:46 PM EDT on May 23, 2018 (GMT -0400)
Gerald R. Ford International

Weather History for KGRR - November, 2013

Change the Weather History Date:

Saturday, November 16, 2013

  Actual Average Record
Temperature  
Mean Temperature 47 °F 40 °F  
Max Temperature 57 °F 47 °F 68 °F (1896)
Min Temperature 36 °F 33 °F 11 °F (1933)
Degree Days  
Heating Degree Days 18 25  
Month to date heating degree days 363 353  
Since 1 July heating degree days 877 945  
Cooling Degree Days 0 0  
Month to date cooling degree days 0 0  
Year to date cooling degree days 767 699  
Moisture  
Dew Point 43 °F    
Average Humidity 78    
Maximum Humidity 89    
Minimum Humidity 66    
Precipitation  
Precipitation 0.46 in 0.12 in 1.34 in (1909)
Month to date precipitation 2.31 1.93  
Year to date precipitation 41.34 34.19  
Snow  
Snow 0.00 in 0.20 in 5.00 in (2005)
Month to date snowfall 0.1 2.3  
Since 1 July snowfall 0.1 2.8  
Since 1 September snowfall 0.1 2.8  
Snow Depth 0.00 in    
Sea Level Pressure  
Sea Level Pressure 29.87 in    
Wind  
Wind Speed 14 mph (SSE)    
Max Wind Speed 26 mph    
Max Gust Speed 33 mph    
Visibility 8 miles    
Events Rain    
T = Trace of Precipitation, MM = Missing Value Source: NWS Daily Summary

Daily Weather History Graph

Daily Weather History Graph

Search for Another Location

Airport or City:

Astronomy

Nov. 16, 2013 Rise Set
Actual Time 7:35 AM EST 5:17 PM EST
Civil Twilight 7:05 AM EST 5:48 PM EST
Nautical Twilight 6:30 AM EST 6:22 PM EST
Astronomical Twilight 5:57 AM EST 6:56 PM EST
Moon 4:53 PM EST (11/16) 6:30 AM EST (11/16)
Length of Visible Light 10h 43m
Length of Day
9h 41m
Waxing Gibbous, 99% of the Moon is Illuminated
Nov 16
Waxing Gibbous
Nov 17
Full
Nov 25
Last Quarter
Dec 2
New
Dec 9
First Quarter

Hourly Weather History & Observations

Time (EST) Temp. Windchill Dew Point Humidity Pressure Visibility Wind Dir Wind Speed Gust Speed Precip Events Conditions
12:53 AM 37.0 °F 31.0 °F 28.9 °F 73% 30.01 in 10.0 mi South 8.1 mph - N/A   Clear
1:53 AM 37.0 °F 30.4 °F 28.9 °F 73% 30.00 in 10.0 mi SSE 9.2 mph - N/A   Clear
2:53 AM 37.0 °F 31.0 °F 28.9 °F 73% 30.01 in 10.0 mi South 8.1 mph - N/A   Clear
3:53 AM 37.0 °F 30.4 °F 30.0 °F 76% 30.02 in 10.0 mi South 9.2 mph - N/A   Clear
4:53 AM 37.9 °F 31.5 °F 30.9 °F 76% 30.02 in 10.0 mi South 9.2 mph - N/A   Clear
5:42 AM 39.2 °F 33.6 °F 33.8 °F 81% 30.01 in 10.0 mi SSE 8.1 mph - N/A   Mostly Cloudy
5:53 AM 39.9 °F 33.9 °F 34.0 °F 79% 30.02 in 10.0 mi SSE 9.2 mph - N/A   Mostly Cloudy
6:53 AM 41.0 °F 35.2 °F 36.0 °F 82% 30.02 in 9.0 mi SSE 9.2 mph - N/A   Overcast
7:43 AM 41.0 °F 35.8 °F 35.6 °F 81% 30.00 in 8.0 mi SSE 8.1 mph - N/A   Mostly Cloudy
7:53 AM 41.0 °F 35.8 °F 36.0 °F 82% 30.01 in 6.0 mi SE 8.1 mph - N/A   Haze
8:41 AM 42.8 °F 37.5 °F 37.4 °F 81% 29.98 in 5.0 mi SSE 9.2 mph - N/A   Haze
8:53 AM 43.0 °F 37.2 °F 39.0 °F 86% 30.00 in 5.0 mi SSE 10.4 mph - N/A   Overcast
9:37 AM 46.4 °F 41.1 °F 42.8 °F 87% 29.96 in 5.0 mi SSE 11.5 mph - N/A   Overcast
9:53 AM 46.9 °F - 42.1 °F 83% 29.98 in 5.0 mi SSE 9.2 mph - N/A   Haze
10:53 AM 50.0 °F - 44.1 °F 80% 29.96 in 8.0 mi SSE 15.0 mph - N/A   Overcast
11:53 AM 54.0 °F - 45.0 °F 72% 29.92 in 10.0 mi SSE 13.8 mph - N/A   Mostly Cloudy
12:21 PM 55.4 °F - 44.6 °F 67% 29.89 in 10.0 mi South 19.6 mph 29.9 mph N/A   Overcast
12:53 PM 55.9 °F - 45.0 °F 67% 29.90 in 10.0 mi South 17.3 mph 26.5 mph N/A   Overcast
1:53 PM 55.0 °F - 46.0 °F 72% 29.87 in 10.0 mi South 16.1 mph - N/A   Overcast
2:53 PM 55.9 °F - 46.0 °F 69% 29.83 in 10.0 mi SSE 17.3 mph 21.9 mph N/A   Overcast
3:53 PM 55.9 °F - 46.9 °F 72% 29.83 in 9.0 mi South 15.0 mph - N/A   Overcast
4:53 PM 55.9 °F - 46.9 °F 72% 29.81 in 9.0 mi South 15.0 mph - N/A   Overcast
5:53 PM 55.9 °F - 46.9 °F 72% 29.79 in 10.0 mi South 15.0 mph 24.2 mph N/A   Mostly Cloudy
6:30 PM 55.4 °F - 46.4 °F 72% 29.78 in 10.0 mi South 16.1 mph 24.2 mph N/A   Overcast
6:53 PM 55.0 °F - 48.0 °F 77% 29.79 in 10.0 mi South 16.1 mph 23.0 mph 0.00 in Rain Light Rain
7:53 PM 54.0 °F - 48.9 °F 83% 29.77 in 6.0 mi South 18.4 mph - 0.01 in Rain Light Rain
8:53 PM 54.0 °F - 48.9 °F 83% 29.72 in 7.0 mi SSE 24.2 mph 28.8 mph 0.01 in Rain Light Rain
9:18 PM 53.6 °F - 48.2 °F 82% 29.70 in 7.0 mi SSE 21.9 mph 29.9 mph 0.00 in Rain Light Rain
9:53 PM 55.0 °F - 50.0 °F 83% 29.72 in 5.0 mi South 19.6 mph 27.6 mph 0.01 in Rain Light Rain
10:11 PM 53.6 °F - 51.8 °F 94% 29.70 in 3.0 mi SSE 20.7 mph 28.8 mph 0.07 in Rain Heavy Rain
10:33 PM 53.6 °F - 51.8 °F 94% 29.69 in 4.0 mi SSE 16.1 mph 25.3 mph 0.13 in Rain Heavy Rain
10:53 PM 55.0 °F - 52.0 °F 89% 29.70 in 6.0 mi South 15.0 mph - 0.15 in Rain Light Rain
11:22 PM 55.4 °F - 53.6 °F 94% 29.70 in 2.5 mi South 12.7 mph - 0.09 in Rain Heavy Rain
11:39 PM 57.2 °F - 53.6 °F 88% 29.68 in 3.0 mi South 17.3 mph 25.3 mph 0.18 in Rain Heavy Rain
11:42 PM 57.2 °F - 53.6 °F 88% 29.68 in 2.5 mi South 18.4 mph 25.3 mph 0.20 in Rain Heavy Rain
11:53 PM 57.0 °F - 53.1 °F 87% 29.67 in 4.0 mi South 20.7 mph 26.5 mph 0.25 in Rain Light Rain